Weather History for KMKL - May, 2013

Change the Weather History Date:

Friday, May 3, 2013

  Actual Average Record
Temperature  
Mean Temperature 55 °F 65 °F  
Max Temperature 69 °F 77 °F 90 °F (1949)
Min Temperature 41 °F 54 °F 35 °F (2005)
Degree Days  
Heating Degree Days 10 3  
Month to date heating degree days 10 9  
Since 1 July heating degree days 3594 3535  
Cooling Degree Days 0 3  
Month to date cooling degree days 5 9  
Year to date cooling degree days 61 68  
Growing Degree Days 6 (Base 50)    
Moisture  
Dew Point 45 °F    
Average Humidity 81    
Maximum Humidity 96    
Minimum Humidity 66    
Precipitation  
Precipitation 1.68 in 0.19 in 3.23 in (1979)
Month to date precipitation 1.68 0.57  
Year to date precipitation 28.07 18.42  
Snow  
Snow 0.00 in 0.00 in - ()
Month to date snowfall 0.0 0.0  
Since 1 July snowfall 1.4 4.6  
Snow Depth 0.00 in    
Sea Level Pressure  
Sea Level Pressure 29.93 in    
Wind  
Wind Speed 9 mph (WSW)    
Max Wind Speed 20 mph    
Max Gust Speed 26 mph    
Visibility 7 miles    
Events Rain    
T = Trace of Precipitation, MM = Missing Value Source: NWS Daily Summary

Daily Weather History Graph

Daily Weather History Graph

Search for Another Location

Airport or City:

Trip Planner

Search our weather history database for the weather conditions in past years. The results will help you decide how hot, cold, wet, or windy it might be!

Date:

Astronomy

May. 03, 2013 Rise Set
Actual Time 6:01 AM CDT 7:44 PM CDT
Civil Twilight 5:34 AM CDT 8:11 PM CDT
Nautical Twilight 5:00 AM CDT 8:44 PM CDT
Astronomical Twilight 4:25 AM CDT 9:20 PM CDT
Moon 2:12 AM CDT (5/3) 1:50 PM CDT (5/3)
Length of Visible Light 14h 37m
Length of Day
13h 42m
Last Quarter, 37% of the Moon is Illuminated
May 3
Last Quarter
May 9
New
May 17
First Quarter
May 24
Full
May 31
Last Quarter

Hourly Weather History & Observations

Time (CDT) Temp. Windchill Dew Point Humidity Pressure Visibility Wind Dir Wind Speed Gust Speed Precip Events Conditions
12:53 AM 64.9 °F - 59.0 °F 81% 30.00 in 10.0 mi Variable 3.5 mph - N/A   Overcast
1:53 AM 64.9 °F - 59.0 °F 81% 29.97 in 10.0 mi Calm Calm - 0.00 in   Overcast
3:53 AM 64.0 °F - 57.0 °F 78% 29.94 in 10.0 mi Variable 5.8 mph - N/A   Clear
4:53 AM 63.0 °F - 57.0 °F 81% 29.92 in 10.0 mi SSE 6.9 mph 17.3 mph N/A   Partly Cloudy
5:53 AM 63.0 °F - 57.0 °F 81% 29.91 in 10.0 mi Variable 5.8 mph 17.3 mph N/A   Scattered Clouds
6:53 AM 63.0 °F - 57.0 °F 81% 29.91 in 10.0 mi SE 6.9 mph 18.4 mph N/A   Partly Cloudy
7:53 AM 64.0 °F - 55.9 °F 75% 29.91 in 10.0 mi SE 11.5 mph 23.0 mph N/A   Clear
8:53 AM 64.9 °F - 57.0 °F 75% 29.90 in 10.0 mi SSE 9.2 mph 24.2 mph N/A   Scattered Clouds
9:53 AM 66.0 °F - 57.0 °F 73% 29.88 in 10.0 mi South 17.3 mph 25.3 mph N/A   Partly Cloudy
10:53 AM 66.9 °F - 57.0 °F 70% 29.88 in 10.0 mi SSE 10.4 mph 24.2 mph 0.00 in   Overcast
11:53 AM 69.1 °F - 57.0 °F 65% 29.86 in 10.0 mi SSE 10.4 mph 19.6 mph N/A   Overcast
12:53 PM 54.0 °F - 51.1 °F 90% 29.87 in 9.0 mi West 10.4 mph - 0.00 in Rain Light Rain
1:04 PM 53.6 °F - 50.0 °F 88% 29.88 in 10.0 mi West 11.5 mph - 0.01 in Rain Light Rain
1:23 PM 51.8 °F - 50.0 °F 94% 29.87 in 10.0 mi West 6.9 mph - 0.01 in Rain Light Rain
1:53 PM 50.0 °F - 48.0 °F 93% 29.85 in 7.0 mi West 6.9 mph - 0.05 in Rain Light Rain
2:53 PM 48.0 °F - 45.0 °F 89% 29.87 in 3.0 mi West 11.5 mph - 0.13 in Rain Rain
3:20 PM 46.4 °F 40.1 °F 44.6 °F 93% 29.87 in 3.0 mi West 15.0 mph - 0.08 in Rain Rain
3:34 PM 46.4 °F 40.4 °F 44.6 °F 93% 29.88 in 4.0 mi West 13.8 mph 19.6 mph 0.12 in Rain Rain
3:53 PM 46.0 °F 39.6 °F 44.1 °F 93% 29.88 in 4.0 mi West 15.0 mph 19.6 mph 0.17 in Rain Rain
4:07 PM 44.6 °F 39.7 °F 42.8 °F 93% 29.88 in 7.0 mi West 9.2 mph - 0.02 in Rain Light Rain
4:24 PM 44.6 °F 37.8 °F 42.8 °F 93% 29.89 in 3.0 mi West 15.0 mph 21.9 mph 0.08 in Rain Heavy Rain
4:31 PM 44.6 °F 38.8 °F 42.8 °F 93% 29.89 in 2.0 mi West 11.5 mph - 0.11 in Rain Rain
4:53 PM 43.0 °F 36.4 °F 41.0 °F 93% 29.91 in 1.2 mi WSW 12.7 mph - 0.30 in Rain Heavy Rain
5:08 PM 42.8 °F 37.5 °F 41.0 °F 93% 29.90 in 2.0 mi West 9.2 mph - 0.10 in Rain Rain
5:17 PM 42.8 °F 37.0 °F 41.0 °F 93% 29.92 in 2.0 mi WSW 10.4 mph - 0.15 in Rain Rain
5:25 PM 42.8 °F 35.8 °F 41.0 °F 93% 29.94 in 1.2 mi WSW 13.8 mph 21.9 mph 0.22 in Rain Heavy Rain
5:33 PM 42.8 °F 37.0 °F 41.0 °F 93% 29.91 in 2.0 mi West 10.4 mph - 0.25 in Rain Rain
5:42 PM 42.8 °F 38.6 °F 41.0 °F 93% 29.90 in 5.0 mi West 6.9 mph - 0.27 in Rain Light Rain
5:53 PM 43.0 °F 36.0 °F 41.0 °F 93% 29.92 in 2.5 mi West 13.8 mph - 0.33 in Rain Rain
6:02 PM 42.8 °F 36.2 °F 41.0 °F 93% 29.92 in 1.2 mi West 12.7 mph - 0.10 in Rain Heavy Rain
6:29 PM 42.8 °F 40.1 °F 41.0 °F 93% 29.91 in 2.0 mi WNW 4.6 mph - 0.26 in Rain Heavy Rain
6:53 PM 43.0 °F 38.8 °F 41.0 °F 93% 29.92 in 5.0 mi West 6.9 mph - 0.41 in Rain Rain
7:12 PM 42.8 °F 37.5 °F 41.0 °F 93% 29.94 in 10.0 mi WSW 9.2 mph - 0.02 in Rain Light Rain
7:25 PM 42.8 °F 37.5 °F 41.0 °F 93% 29.94 in 10.0 mi WSW 9.2 mph - 0.02 in Rain Light Rain
7:48 PM 42.8 °F 37.0 °F 39.2 °F 87% 29.95 in 10.0 mi West 10.4 mph - 0.03 in Rain Light Rain
7:53 PM 43.0 °F 38.2 °F 39.9 °F 89% 29.94 in 10.0 mi West 8.1 mph - 0.03 in Rain Light Rain
8:16 PM 42.8 °F 39.3 °F 39.2 °F 87% 29.96 in 6.0 mi West 5.8 mph - 0.04 in Rain Light Rain
8:53 PM 43.0 °F 38.8 °F 41.0 °F 93% 29.96 in 7.0 mi WSW 6.9 mph - 0.09 in Rain Light Rain
9:35 PM 42.8 °F 38.0 °F 39.2 °F 87% 29.98 in 6.0 mi WSW 8.1 mph - 0.06 in Rain Rain
9:42 PM 42.8 °F 38.6 °F 41.0 °F 93% 30.00 in 8.0 mi SW 6.9 mph - 0.07 in Rain Light Rain
9:53 PM 42.1 °F 37.7 °F 39.9 °F 92% 29.98 in 8.0 mi West 6.9 mph - 0.08 in Rain Light Rain
10:03 PM 42.8 °F 37.5 °F 41.0 °F 93% 29.97 in 6.0 mi West 9.2 mph - 0.02 in Rain Rain
10:09 PM 42.8 °F 36.2 °F 39.2 °F 87% 29.96 in 6.0 mi West 12.7 mph - 0.04 in Rain Rain
10:18 PM 42.8 °F 37.5 °F 39.2 °F 87% 29.98 in 7.0 mi West 9.2 mph - 0.05 in Rain Light Rain
10:40 PM 42.8 °F 37.0 °F 39.2 °F 87% 29.98 in 7.0 mi West 10.4 mph - 0.09 in Rain Rain
10:51 PM 42.8 °F 38.6 °F 39.2 °F 87% 29.98 in 10.0 mi WSW 6.9 mph - 0.09 in Rain Light Rain
10:53 PM 42.1 °F 36.6 °F 39.9 °F 92% 29.98 in 10.0 mi WSW 9.2 mph - 0.09 in   Overcast
11:44 PM 42.8 °F 40.1 °F 39.2 °F 87% 29.98 in 10.0 mi SSW 4.6 mph - 0.00 in   Overcast
11:50 PM 42.8 °F 40.1 °F 39.2 °F 87% 29.98 in 10.0 mi SSW 4.6 mph - 0.00 in   Overcast
11:53 PM 42.1 °F 38.4 °F 39.9 °F 92% 29.98 in 10.0 mi SW 5.8 mph - 0.00 in   Overcast